This is the latest recevied weather packets stored in our database for station/object K1LVA. If no packets are shown the sender has not sent any weather packets the latest 10 day(s).
| Time | Temp. | Humidity | Pressure | Rain* | Wind** | Luminosity | Snow |
|---|---|---|---|---|---|---|---|
| 1778165238 | 20° C | 99% | 1010 hPa | 0 mm | - | 46 W/m² | - |
| 1778164936 | 20° C | 99% | 1009.8 hPa | 0 mm | - | 52 W/m² | - |
| 1778164633 | 20° C | 99% | 1010.1 hPa | 0 mm | - | 64 W/m² | - |
| 1778164330 | 20° C | 99% | 1009.5 hPa | 1.27 mm | - | 58 W/m² | - |
| 1778164025 | 20° C | 99% | 1009.7 hPa | 1.27 mm | - | 64 W/m² | - |
| 1778163722 | 20° C | 99% | 1010.2 hPa | 0 mm | - | 31 W/m² | - |
| 1778163418 | 20° C | 99% | 1010.2 hPa | 1.78 mm | - | 42 W/m² | - |
| 1778163115 | 20° C | 99% | 1010.6 hPa | 1.78 mm | - | 30 W/m² | - |
| 1778162812 | 20° C | 99% | 1010.8 hPa | 1.27 mm | - | 21 W/m² | - |
| 1778162509 | 20° C | 99% | 1010.6 hPa | 3.05 mm | - | 19 W/m² | - |
| 1778162206 | 20° C | 99% | 1010.6 hPa | 4.83 mm | - | 8 W/m² | - |
| 1778161904 | 20° C | 99% | 1010.5 hPa | 4.83 mm | - | 6 W/m² | - |
| 1778161600 | 20° C | 99% | 1010.2 hPa | 1.78 mm | - | 6 W/m² | - |
| 1778161296 | 20° C | 99% | 1009.8 hPa | 0 mm | - | 32 W/m² | - |
| 1778160992 | 20° C | 99% | 1010.6 hPa | 0 mm | - | 32 W/m² | - |
| 1778160690 | 20° C | 99% | 1010.6 hPa | 0 mm | - | 91 W/m² | - |
| 1778160387 | 20° C | 99% | 1010.6 hPa | 0 mm | - | 147 W/m² | - |
| 1778160083 | 20° C | 99% | 1010.8 hPa | 0 mm | - | 129 W/m² | - |
| 1778159780 | 20° C | 99% | 1010.6 hPa | 0 mm | - | 182 W/m² | - |
| 1778159477 | 20° C | 99% | 1010.9 hPa | 0 mm | - | 104 W/m² | - |
| 1778159174 | 19.44° C | 99% | 1010.5 hPa | 0 mm | - | 107 W/m² | - |
| 1778158872 | 19.44° C | 99% | 1010.4 hPa | 0 mm | - | 98 W/m² | - |
| 1778158570 | 19.44° C | 99% | 1010.5 hPa | 0 mm | - | 85 W/m² | - |
| 1778158267 | 19.44° C | 99% | 1010.4 hPa | 0 mm | - | 83 W/m² | - |
| 1778157963 | 19.44° C | 99% | 1010.3 hPa | 0 mm | - | 109 W/m² | - |
* Rain latest hour (hover to see other rain measurements)
** Current wind speed in m/s (hover to see current wind gust speed)